Flag for U.S.A. Weather past 2 weeks in Fairbanks, Alaska, U.S.A.

Now
35 °F

Clear.


Feels Like: 29 °F
Forecast: 34 / 53 °F
Wind: 7 mph from Northeast

Location: Wainwright U. S. Army Airfield


UV Index: 0 (Low)

Visibility: 10 mi


Pressure: 29.64 "Hg

Humidity: 70%

Dew point: 26 °F

Location of FairbanksLocation

Historic Weather in Fairbanks

°F

Fairbanks temperature yesterday

Maximum temperature yesterday: 54 °F (at 2:55 PM)
Minimum temperature yesterday: 31 °F (at 4:56 AM)
Average temperature yesterday: 44 °F

Past Weeks' High & Low Weather Summary

 TemperatureHumidityPressure
High55 °F (Apr 21, 2:55 PM)93% (Apr 14, 6:55 AM)30.28 "Hg (Apr 14, 6:55 AM)
Low-13 °F (Apr 10, 6:55 AM)24% (Apr 23, 2:55 PM)29.38 "Hg (Apr 17, 8:55 PM)
Average33 °F57%29.84 "Hg
* Reported Apr 9 6:55 AM — Apr 24 5:56 AM, Fairbanks, Weather by CustomWeather, © 2014

Note: Actual official high and low records may vary slightly from our data, if they occured in-between our weather recording intervals... More about our weather records

Advertising

Historic Weather Conditions — Data for Previous 24 hours

 ConditionsComfort  
Time TempWeatherWind HumidityBarometerVisibility
5:56 AM
Apr 24
35 °FClear.7 mph70%29.64 "Hg10 mi
4:56 AM36 °FClear.12 mph67%29.65 "Hg10 mi
3:56 AM37 °FClear.9 mph65%29.65 "Hg10 mi
2:56 AM38 °FClear.10 mph63%29.64 "Hg10 mi
1:56 AM39 °FClear.9 mph62%29.64 "Hg10 mi
12:56 AM42 °FOvercast.8 mph55%29.63 "Hg10 mi
11:56 PM
Apr 23
42 °FPassing clouds.8 mph53%29.64 "Hg10 mi
10:56 PM44 °FPassing clouds.8 mph49%29.64 "Hg10 mi
9:55 PM48 °FScattered clouds.6 mph40%29.64 "Hg25 mi
8:55 PM52 °FPassing clouds.7 mph35%29.63 "Hg25 mi
7:55 PM54 °FPassing clouds.10 mph30%29.63 "Hg25 mi
6:55 PM54 °FPassing clouds.6 mph30%29.64 "Hg25 mi
5:55 PM54 °FPassing clouds.3 mph24%29.65 "Hg25 mi
4:55 PM54 °FPassing clouds.No wind24%29.65 "Hg25 mi
3:55 PM54 °FPassing clouds.No wind26%29.66 "Hg25 mi
2:55 PM54 °FPassing clouds.No wind24%29.67 "Hg25 mi
1:55 PM52 °FPassing clouds.5 mph28%29.69 "Hg85 mi
12:55 PM50 °FPassing clouds.5 mph28%29.71 "Hg85 mi
11:55 AM48 °FPassing clouds.6 mph32%29.71 "Hg85 mi
10:55 AM45 °FPassing clouds.10 mph37%29.73 "Hg85 mi
9:55 AM43 °FPassing clouds.12 mph39%29.74 "Hg85 mi
8:55 AM39 °FPassing clouds.6 mph48%29.74 "Hg85 mi
7:55 AM36 °FPassing clouds.5 mph56%29.75 "Hg85 mi
6:55 AM32 °FPassing clouds.3 mph64%29.75 "Hg85 mi
Weather by CustomWeather, © 2014

See weather overview